Weather in Prokop

Russia / Tomsk District     58°42′20″N   81°21′02″E
temp.,
°C
wind,
m/s
gust,
m/s
humid.,
%
clouds,
%
prec.,
mm/h
press.,
hPa
HPBL,
m
21 april, wed
wed2101:00−5s4995100 1.1 1016516
04:00−6ese369598 0.2 1016253
07:00−7ene379689 0.3 1019224
10:00−4ene578694 0.1 1022632
13:00−2ne567799 0.2 10251114
16:00−1ne5669100 0.3 10281319
19:00−1nne4772100 0.4 1031924
22:00−6nne37895 0.1 1035103
22 april, thu
thu2201:00−8nne25925 0.1 103757
04:00−9n23945 0.0 103948
07:00−9n23935 0.0 104250
10:00−3n24744 0.0 1044310
13:000n23674 0.0 1045675
16:00+1n23634 0.0 1045757
19:000nne23714 0.0 1046216
22:00−6se11895 0.0 104710
23 april, fri
fri2301:00−6s11895 0.0 104812
04:00−6ssw229138 0.0 104828
07:00−5ssw229351 0.0 104850
10:00+2s127417 0.0 1048355
13:00+4se126647 0.0 10471002
16:00+5ese236341 0.0 10461052
19:00+3ese34775 0.0 1045139
22:00−2se26895 0.0 104599
24 april, sat
sat2401:00−3sse24875 0.0 104459
04:00−4sse11935 0.0 104232
07:00−3sse12905 0.0 104243
10:00+3ese12724 0.0 1040359
13:00+5e22594 0.0 1038813
16:00+5ene21604 0.0 1036791
19:00+4ese23690 0.0 1035184
22:000sse11783 0.0 103510
25 april, sun
sun2501:00−1sw11815 0.0 103410
04:00−1sw118451 0.0 103310
07:00−1ssw118431 0.0 103315
10:00+5ssw116798 0.0 1032344
13:00+7sw1260100 0.0 10311008
16:00+8w1257100 0.0 10301219
19:00+7ese1170100 0.0 103017
22:00+4sse2281100 0.0 103010